Weather History for Shreveport, LA

Change the Weather History Date:

Tuesday, July 23, 2013

  Actual Average Record
Temperature  
Mean Temperature 86 °F 83 °F  
Max Temperature 96 °F 94 °F 102 °F (1934)
Min Temperature 75 °F 73 °F 62 °F (1947)
Degree Days  
Heating Degree Days 0 0  
Month to date heating degree days 0 0  
Since 1 June heating degree days 0 0  
Since 1 July heating degree days 0 0  
Cooling Degree Days 21 18  
Month to date cooling degree days 391 409  
Year to date cooling degree days 1276 1251  
Since 1 June cooling degree days 889 853  
Growing Degree Days 36 (Base 50)    
Moisture  
Dew Point 73 °F    
Average Humidity 67    
Maximum Humidity 88    
Minimum Humidity 46    
Precipitation  
Precipitation T in 0.10 in 8.00 in (1905)
Month to date precipitation 0.82 2.78  
Year to date precipitation 25.42 30.39  
Snow  
Snow 0.00 in - - ()
Month to date snowfall 0.0  
Since 1 June snowfall 0.0  
Since 1 July snowfall 0.0  
Snow Depth 0.00 in    
Sea Level Pressure  
Sea Level Pressure 29.94 in    
Wind  
Wind Speed 9 mph (SW)    
Max Wind Speed 22 mph    
Max Gust Speed 26 mph    
Visibility 10 miles    
Events Rain    
T = Trace of Precipitation, MM = Missing Value Source: NWS Daily Summary

Daily Weather History Graph

Daily Weather History Graph

Search for Another Location

Airport:

Trip Planner

Search our weather history database for the weather conditions in past years. The results will help you decide how hot, cold, wet, or windy it might be!

Date:

Astronomy

Jul. 23, 2013 Rise Set
Actual Time 6:24 AM CDT 8:19 PM CDT
Civil Twilight 5:56 AM CDT 8:46 PM CDT
Nautical Twilight 5:23 AM CDT 9:19 PM CDT
Astronomical Twilight 4:48 AM CDT 9:54 PM CDT
Moon 8:57 PM CDT (7/23) 7:26 AM CDT (7/23)
Length of Visible Light 14h 49m
Length of Day
13h 55m
Full, 99% of the Moon is Illuminated
Jul 23
Full
Jul 29
Last Quarter
Aug 6
New
Aug 14
First Quarter
Aug 20
Full

Hourly Weather History & Observations

Time (CDT) Temp. Heat Index Dew Point Humidity Pressure Visibility Wind Dir Wind Speed Gust Speed Precip Events Conditions
12:56 AM 82.9 °F 89.4 °F 73.9 °F 74% 29.96 in 10.0 mi SSW 9.2 mph - N/A   Clear
1:56 AM 82.0 °F 87.9 °F 73.9 °F 76% 29.95 in 10.0 mi SSW 10.4 mph - N/A   Clear
2:56 AM 81.0 °F 86.2 °F 73.9 °F 79% 29.94 in 10.0 mi SSW 9.2 mph - N/A   Clear
3:56 AM 80.1 °F 84.5 °F 73.9 °F 81% 29.94 in 10.0 mi SSW 6.9 mph - N/A   Partly Cloudy
4:56 AM 79.0 °F - 73.9 °F 84% 29.95 in 10.0 mi SSW 6.9 mph - N/A   Scattered Clouds
5:56 AM 78.1 °F - 73.9 °F 87% 29.96 in 10.0 mi Variable 3.5 mph - N/A   Mostly Cloudy
6:11 AM 78.8 °F - 73.4 °F 83% 29.97 in 10.0 mi SSW 4.6 mph - N/A   Mostly Cloudy
6:22 AM 77.0 °F - 73.4 °F 89% 29.98 in 10.0 mi SW 5.8 mph - N/A   Scattered Clouds
6:56 AM 77.0 °F - 73.9 °F 90% 29.97 in 8.0 mi SSW 8.1 mph - N/A   Overcast
7:56 AM 80.1 °F 85.1 °F 75.0 °F 85% 29.99 in 10.0 mi SW 8.1 mph - N/A   Mostly Cloudy
8:31 AM 80.6 °F 85.4 °F 73.4 °F 79% 30.01 in 10.0 mi SW 10.4 mph - N/A   Overcast
8:56 AM 82.0 °F 87.9 °F 73.9 °F 76% 30.00 in 10.0 mi SW 10.4 mph - N/A   Mostly Cloudy
9:56 AM 84.9 °F 91.4 °F 73.0 °F 67% 30.00 in 10.0 mi SW 12.7 mph 23.0 mph N/A   Mostly Cloudy
10:22 AM 86.0 °F 93.4 °F 73.4 °F 66% 30.01 in 10.0 mi WSW 13.8 mph - N/A   Scattered Clouds
10:56 AM 89.1 °F 97.0 °F 73.0 °F 59% 29.99 in 10.0 mi WSW 15.0 mph 21.9 mph N/A   Scattered Clouds
11:56 AM 90.0 °F 97.9 °F 73.0 °F 57% 29.99 in 10.0 mi SW 10.4 mph 17.3 mph N/A   Mostly Cloudy
12:56 PM 91.9 °F 100.7 °F 73.0 °F 54% 29.97 in 10.0 mi WSW 10.4 mph 18.4 mph N/A   Mostly Cloudy
1:56 PM 91.9 °F 100.7 °F 73.0 °F 54% 29.94 in 10.0 mi SW 12.7 mph - N/A   Partly Cloudy
2:56 PM 93.9 °F 102.1 °F 72.0 °F 49% 29.92 in 10.0 mi WSW 13.8 mph 19.6 mph N/A   Partly Cloudy
3:56 PM 95.0 °F 103.2 °F 72.0 °F 47% 29.89 in 10.0 mi SW 13.8 mph 17.3 mph N/A   Partly Cloudy
4:56 PM 95.0 °F 103.2 °F 72.0 °F 47% 29.88 in 10.0 mi SW 10.4 mph - N/A   Scattered Clouds
5:56 PM 93.9 °F 102.1 °F 72.0 °F 49% 29.86 in 10.0 mi SW 8.1 mph - N/A   Scattered Clouds
6:56 PM 93.0 °F 100.1 °F 71.1 °F 49% 29.84 in 10.0 mi SW 8.1 mph - N/A   Scattered Clouds
7:56 PM 90.0 °F 96.9 °F 72.0 °F 55% 29.87 in 10.0 mi WSW 6.9 mph - N/A   Mostly Cloudy
8:56 PM 88.0 °F 92.9 °F 70.0 °F 55% 29.85 in 10.0 mi SSW 4.6 mph - N/A   Mostly Cloudy
9:56 PM 82.9 °F 91.8 °F 77.0 °F 82% 29.90 in 10.0 mi Calm Calm - 0.00 in Rain Light Rain
10:56 PM 77.0 °F - 70.0 °F 79% 29.94 in 10.0 mi East 15.0 mph 21.9 mph 0.00 in   Overcast
11:56 PM 75.0 °F - 70.0 °F 84% 29.89 in 10.0 mi SE 10.4 mph - 0.00 in   Overcast